Indianapolis, IN

4:19 AM EST on December 09, 2016 (GMT -0500)
Indianapolis International

Weather History for KIND - December, 2012

Change the Weather History Date:

Saturday, December 29, 2012

  Actual Average Record
Temperature  
Mean Temperature 27 °F 29 °F  
Max Temperature 31 °F 36 °F 66 °F (1889)
Min Temperature 23 °F 22 °F -13 °F (1880)
Degree Days  
Heating Degree Days 38 36  
Month to date heating degree days 738 961  
Since 1 July heating degree days 1901 2003  
Cooling Degree Days 0 0  
Month to date cooling degree days 0 0  
Year to date cooling degree days 1534 1066  
Moisture  
Dew Point 25 °F    
Average Humidity 87    
Maximum Humidity 100    
Minimum Humidity 74    
Precipitation  
Precipitation 0.14 in 0.10 in 1.36 in (1990)
Month to date precipitation 2.53 2.97  
Year to date precipitation 37.95 42.24  
Snow  
Snow 2.20 in 0.20 in 3.80 in (1915)
Month to date snowfall 14.0 6.3  
Since 1 July snowfall 14.2 7.4  
Snow Depth 10.00 in    
Sea Level Pressure  
Sea Level Pressure 29.95 in    
Wind  
Wind Speed 13 mph (NW)    
Max Wind Speed 28 mph    
Max Gust Speed 33 mph    
Visibility 3 miles    
Events Snow    
T = Trace of Precipitation, MM = Missing Value Source: NWS Daily Summary

Daily Weather History Graph

Daily Weather History Graph

Search for Another Location

Airport or City:

Trip Planner

Search our weather history database for the weather conditions in past years. The results will help you decide how hot, cold, wet, or windy it might be!

Date:

Astronomy

Dec. 29, 2012 Rise Set
Actual Time 8:05 AM EST 5:29 PM EST
Civil Twilight 7:35 AM EST 5:59 PM EST
Nautical Twilight 7:01 AM EST 6:33 PM EST
Astronomical Twilight 6:28 AM EST 7:06 PM EST
Moon 7:01 PM EST (12/29) 8:39 AM EST (12/29)
Length of Visible Light 10h 24m
Length of Day
9h 23m
Full, 98% of the Moon is Illuminated
Dec 29
Full
Jan 4
Last Quarter
Jan 11
New
Jan 18
First Quarter
Jan 26
Full

Hourly Weather History & Observations

Time (EST) Temp. Windchill Dew Point Humidity Pressure Visibility Wind Dir Wind Speed Gust Speed Precip Events Conditions
12:12 AM 30.2 °F 25.4 °F 28.4 °F 93% 29.83 in 1.2 mi North 4.6 mph - 0.01 in Snow Light Snow
12:23 AM 30.2 °F 23.4 °F 28.4 °F 93% 29.82 in 1.2 mi North 6.9 mph - 0.01 in Snow Light Snow
12:49 AM 30.2 °F 24.3 °F 28.4 °F 93% 29.81 in 1.5 mi North 5.8 mph - 0.01 in Snow Light Snow
12:54 AM 28.9 °F 22.8 °F 28.0 °F 96% 29.84 in 1.5 mi North 5.8 mph - 0.01 in Snow Light Snow
1:54 AM 28.9 °F 21.9 °F 28.0 °F 96% 29.81 in 1.2 mi North 6.9 mph - 0.02 in Snow Light Snow
2:17 AM 28.4 °F 22.2 °F 28.4 °F 100% 29.79 in 1.5 mi North 5.8 mph - 0.01 in Snow Light Snow
2:54 AM 28.9 °F 21.9 °F 28.0 °F 96% 29.81 in 1.5 mi NNW 6.9 mph - 0.02 in Snow Light Snow
3:54 AM 28.9 °F 21.1 °F 28.0 °F 96% 29.82 in 1.2 mi NNW 8.1 mph - 0.02 in Snow Light Snow
4:06 AM 28.4 °F 19.7 °F 28.4 °F 100% 29.79 in 1.2 mi NNW 9.2 mph - 0.01 in Snow Light Snow
4:33 AM 28.4 °F 20.4 °F 28.4 °F 100% 29.79 in 1.5 mi NNW 8.1 mph - 0.03 in Snow Light Snow
4:54 AM 28.0 °F 20.0 °F 27.0 °F 96% 29.82 in 1.5 mi NNW 8.1 mph - 0.04 in Snow Light Snow
5:54 AM 28.0 °F 20.0 °F 27.0 °F 96% 29.83 in 1.2 mi NW 8.1 mph - 0.02 in Snow Light Snow
6:24 AM 28.4 °F 19.1 °F 26.6 °F 93% 29.82 in 1.8 mi NW 10.4 mph - 0.00 in Snow Light Snow
6:52 AM 28.4 °F 18.5 °F 26.6 °F 93% 29.83 in 2.5 mi NW 11.5 mph - 0.01 in Snow Light Snow
6:54 AM 28.4 °F 19.1 °F 26.6 °F 93% 29.83 in 2.5 mi NW 10.4 mph - N/A Snow Light Snow
7:26 AM 28.4 °F 18.0 °F 26.6 °F 93% 29.84 in 3.0 mi NNW 12.7 mph - 0.00 in   Overcast
7:54 AM 28.9 °F 18.6 °F 27.0 °F 92% 29.87 in 3.0 mi NW 12.7 mph - 0.00 in   Overcast
8:47 AM 28.4 °F 19.1 °F 26.6 °F 93% 29.86 in 2.5 mi NW 10.4 mph - N/A   Overcast
8:54 AM 28.9 °F 18.6 °F 27.0 °F 92% 29.89 in 2.5 mi NW 12.7 mph - N/A   Overcast
9:11 AM 28.4 °F 18.5 °F 26.6 °F 93% 29.87 in 1.8 mi NW 11.5 mph - N/A   Overcast
9:35 AM 28.4 °F 19.1 °F 26.6 °F 93% 29.89 in 2.0 mi WNW 10.4 mph - N/A   Overcast
9:54 AM 28.9 °F 19.8 °F 27.0 °F 92% 29.92 in 1.5 mi WNW 10.4 mph - N/A   Overcast
10:15 AM 30.2 °F 21.3 °F 26.6 °F 86% 29.91 in 2.5 mi WNW 10.4 mph - N/A   Overcast
10:35 AM 30.2 °F 21.3 °F 26.6 °F 86% 29.92 in 2.5 mi WNW 10.4 mph - N/A   Overcast
10:54 AM 30.0 °F 21.1 °F 27.0 °F 88% 29.96 in 2.5 mi WNW 10.4 mph - 0.00 in   Overcast
11:54 AM 30.9 °F 24.3 °F 28.9 °F 92% 29.95 in 2.5 mi WNW 6.9 mph - 0.00 in Snow Light Snow
12:23 PM 30.2 °F 18.9 °F 28.4 °F 93% 29.93 in 3.0 mi West 16.1 mph 19.6 mph 0.00 in Snow Light Snow
12:54 PM 30.0 °F 18.7 °F 27.0 °F 88% 29.96 in 3.0 mi WNW 16.1 mph - 0.00 in Snow Light Snow
1:09 PM 30.2 °F 18.9 °F 26.6 °F 86% 29.93 in 2.5 mi WNW 16.1 mph - 0.00 in Snow Light Snow
1:31 PM 30.2 °F 17.8 °F 26.6 °F 86% 29.93 in 1.8 mi WNW 19.6 mph - 0.00 in Snow Light Snow
1:51 PM 28.4 °F 14.1 °F 24.8 °F 86% 29.94 in 2.0 mi WNW 24.2 mph 31.1 mph 0.00 in Snow Light Snow
1:54 PM 28.0 °F 13.6 °F 24.1 °F 85% 29.97 in 2.0 mi WNW 24.2 mph 31.1 mph 0.00 in Snow Light Snow
2:11 PM 28.4 °F 15.1 °F 24.8 °F 86% 29.95 in 3.0 mi WNW 20.7 mph 27.6 mph 0.00 in Snow Light Snow
2:24 PM 28.4 °F 14.7 °F 23.0 °F 80% 29.96 in 2.5 mi WNW 21.9 mph 33.4 mph 0.00 in Snow Light Snow
2:54 PM 28.0 °F 15.7 °F 24.1 °F 85% 29.99 in 2.0 mi WNW 17.3 mph - 0.00 in Snow Light Snow
3:54 PM 27.0 °F 13.9 °F 23.0 °F 85% 30.03 in 2.5 mi WNW 18.4 mph 27.6 mph 0.00 in Snow Light Snow
4:20 PM 26.6 °F 13.1 °F 21.2 °F 80% 30.02 in 3.0 mi WNW 19.6 mph - 0.00 in Snow Light Snow
4:38 PM 26.6 °F 12.0 °F 21.2 °F 80% 30.03 in 5.0 mi WNW 23.0 mph - 0.00 in Snow Light Snow
4:46 PM 26.6 °F 13.1 °F 21.2 °F 80% 30.04 in 3.0 mi WNW 19.6 mph - 0.00 in Snow Light Snow
4:54 PM 26.1 °F 13.1 °F 21.0 °F 81% 30.07 in 5.0 mi WNW 17.3 mph - 0.00 in Snow Light Snow
5:54 PM 25.0 °F 11.3 °F 19.9 °F 81% 30.10 in 10.0 mi WNW 18.4 mph - 0.00 in   Overcast
6:54 PM 24.1 °F 9.8 °F 19.9 °F 84% 30.14 in 10.0 mi West 19.6 mph - N/A   Overcast
7:54 PM 24.1 °F 12.5 °F 19.9 °F 84% 30.16 in 10.0 mi West 12.7 mph - N/A   Overcast
8:54 PM 25.0 °F 11.7 °F 19.9 °F 81% 30.19 in 10.0 mi West 17.3 mph - N/A   Overcast
9:54 PM 24.1 °F 10.1 °F 18.0 °F 77% 30.22 in 10.0 mi WNW 18.4 mph - N/A   Overcast
10:54 PM 24.1 °F 9.8 °F 18.0 °F 77% 30.25 in 10.0 mi WNW 19.6 mph 26.5 mph N/A   Overcast
11:54 PM 23.0 °F 10.1 °F 18.0 °F 81% 30.28 in 10.0 mi WNW 15.0 mph - N/A   Overcast